Flag for Netherlands Weather past 2 weeks in Eindhoven, Netherlands

Now
64 °F

Fog.


Feels Like: 64 °F
Forecast: 62 / 79 °F
Wind: 7 mph from Northeast

Location: Eindhoven Airport

Current Time: Jul 28, 2014 at 6:23:18 AM

Latest Report: Jul 28, 2014 at 5:55 AM


Visibility: 1 mi

Pressure: 29.89 "Hg

Humidity: 100%

Dew point: 64 °F

Location of EindhovenLocation

Historic Weather in Eindhoven — Graph

°F

Eindhoven temperature yesterday

Maximum temperature yesterday: 81 °F (at 4:25 PM)
Minimum temperature yesterday: 61 °F (at 2:55 AM)
Average temperature yesterday: 70 °F

Past Weeks' High & Low Weather Summary

 TemperatureHumidityPressure
High91 °F (Jul 18, 4:25 PM)100% (Jul 13, 4:25 AM)30.18 "Hg (Jul 13, 4:25 AM)
Low54 °F (Jul 15, 2:25 AM)32% (Jul 19, 3:55 PM)29.71 "Hg (Jul 13, 4:25 PM)
Average70 °F76%29.97 "Hg
* Reported Jul 13 4:25 AM — Jul 28 4:25 AM, Eindhoven, Weather by CustomWeather, © 2014

Note: Actual official high and low records may vary slightly from our data, if they occured in-between our weather recording intervals... More about our weather records

Advertising

Eindhoven weather history for previous 24 hours

 ConditionsComfort  
Time TempWeatherWind HumidityBarometerVisibility
4:25 AM
Jul 28
63 °FFog.3 mph100%29.92 "Hg4 mi
3:59 AM64 °FFog.3 mph94%29.92 "Hg4 mi
3:55 AM64 °FFog.3 mph94%29.92 "Hg5 mi
3:25 AM64 °FOvercast.3 mph94%29.92 "HgN/A
2:55 AM63 °FOvercast.1 mph100%29.92 "HgN/A
2:25 AM63 °FOvercast.3 mph100%29.95 "HgN/A
1:55 AM63 °FOvercast.3 mph100%29.95 "HgN/A
1:25 AM64 °FMostly cloudy.9 mph83%29.98 "HgN/A
12:55 AM63 °FPartly cloudy.13 mph88%29.98 "HgN/A
12:25 AM64 °FThunderstorms. Overcast.7 mph88%29.98 "Hg3 mi
11:55 PM
Jul 27
63 °FThunderstorms. Passing clouds.8 mph94%30.01 "HgN/A
11:25 PM66 °FThunderstorms. Overcast.3 mph83%29.98 "HgN/A
10:56 PM66 °FThunderstorms. Mostly cloudy.5 mph78%29.98 "HgN/A
10:25 PM66 °FMostly cloudy.2 mph78%29.98 "HgN/A
9:55 PM66 °FBroken clouds.2 mph78%29.98 "HgN/A
9:25 PM68 °FOvercast.7 mph73%29.98 "HgN/A
8:55 PM68 °FLight rain. Overcast.12 mph69%29.98 "HgN/A
8:25 PM72 °FThunderstorms. Mostly cloudy.14 mph61%29.95 "HgN/A
7:55 PM75 °FThunderstorms. Scattered clouds.5 mph69%29.95 "HgN/A
7:25 PM77 °FHigh level clouds.3 mph65%29.95 "HgN/A
6:55 PM77 °FPassing clouds.3 mph65%29.95 "HgN/A
6:25 PM79 °FScattered clouds.1 mph58%29.95 "HgN/A
5:59 PM79 °FWarm.3 mph58%29.95 "HgN/A
5:55 PM79 °FWarm.5 mph54%29.95 "HgN/A
5:25 PM81 °FPartly sunny.5 mph51%29.95 "HgN/A
4:55 PM81 °FWarm.2 mph54%29.98 "HgN/A
4:25 PM81 °FPartly sunny.3 mph51%29.98 "HgN/A
3:55 PM79 °FPassing clouds.3 mph54%29.98 "HgN/A
3:25 PM77 °FScattered clouds.3 mph57%29.98 "HgN/A
2:55 PM79 °FPassing clouds.5 mph61%30.01 "HgN/A
2:25 PM77 °FPassing clouds.5 mph61%30.01 "HgN/A
1:55 PM75 °FScattered clouds.3 mph65%30.01 "HgN/A
1:25 PM75 °FPartly sunny.3 mph69%30.01 "HgN/A
1:03 PM73 °FScattered clouds.5 mph69%30.01 "HgN/A
12:55 PM73 °FPartly sunny.5 mph69%30.01 "HgN/A
12:25 PM73 °FPartly sunny.5 mph74%30.01 "HgN/A
11:55 AM72 °FBroken clouds.3 mph73%30.01 "HgN/A
11:25 AM70 °FBroken clouds.3 mph78%30.01 "HgN/A
10:59 AM70 °FOvercast.5 mph78%30.01 "HgN/A
10:55 AM70 °FPartly sunny.5 mph78%30.01 "HgN/A
10:25 AM68 °FFog.5 mph83%30.01 "Hg6 mi
9:55 AM68 °FFog.6 mph83%30.01 "Hg6 mi
9:25 AM68 °FFog.5 mph83%30.01 "Hg4 mi
8:55 AM66 °FFog.7 mph88%30.01 "Hg3 mi
8:25 AM66 °FFog.6 mph88%30.01 "Hg2 mi
7:55 AM66 °FFog.5 mph88%30.01 "Hg2 mi
7:25 AM66 °FFog.5 mph94%29.98 "Hg2 mi
6:55 AM64 °FFog.5 mph100%29.98 "Hg1 mi
6:25 AM64 °FFog.3 mph100%29.98 "Hg1 mi
Weather by CustomWeather, © 2014

See weather overviewHow to use our weather pages